Weather observations for the past three days for
Vero Beach, Vero Beach Municipal Airport
Metric (Imperial)
Date Time (edt) Wind (kph) Vis. (km) Weather Sky Cond. Temperature (ºC) Relative Humidity Wind Chill (°C) Heat Index (°C) Pressure Precipitation (cm)
Air Dwpt 6 hour altimeter (cm) sea level (mb) 1 hr 3 hr 6 hr
Max. Min.
16 06:53 W 6 16.09 Fair CLR 23.3 22.8 97% 76.25 1016.5
16 05:53 NW 6 16.09 Fair CLR 23.3 22.2 94% 76.23 1016.0
16 04:53 W 6 16.09 Fair CLR 23.3 22.2 94% 76.2 1015.8
16 03:53 Calm 16.09 Fair CLR 23.3 22.2 94% 76.2 1015.7
16 02:53 NW 6 16.09 Fair CLR 23.3 21.7 91% 76.17 1015.3
16 01:53 SW 6 16.09 Fair CLR 25 22.8 27.8 23.9 88% 26 76.17 1015.3
16 00:53 W 6 16.09 Fair CLR 24.4 22.2 88% 25 76.2 1015.8
15 23:53 W 6 16.09 Fair CLR 25.6 22.2 82% 27 76.23 1016.2
15 22:53 W 11 16.09 Fair CLR 26.1 22.2 79% 28 76.25 1016.4
15 21:53 W 15 16.09 A Few Clouds FEW060 26.7 21.7 74% 29 76.23 1016.1
15 20:53 Calm 16.09 Fair CLR 27.2 24.4 85% 31 76.17 1015.4
15 19:53 NE 9 16.09 Fair CLR 27.8 23.9 33.9 27.8 79% 32 76.12 1014.7
15 18:53 E 11 16.09 Fair CLR 29.4 23.9 72% 34 76.12 1014.6
15 17:53 NE 9 16.09 Mostly Cloudy BKN120 28.9 23.9 74% 33 76.1 1014.3
15 16:53 NE 17 16.09 A Few Clouds FEW020 29.4 23.9 72% 34 76.1 1014.5
15 15:53 Vrbl 6 16.09 Fair CLR 33.3 19.4 44% 35 76.1 1014.3
15 14:53 SW 20 16.09 Fair CLR 33.9 20.6 46% 37 76.12 1014.9
15 13:53 SW 19 16.09 Fair CLR 33.3 20.6 33.3 25 47% 36 76.12 1014.9
15 12:53 S 17 G 26 16.09 Partly Cloudy FEW028 SCT034 31.1 23.9 66% 37 76.17 1015.6
15 11:53 SW 9 16.09 A Few Clouds FEW029 29.4 22.8 68% 33 76.23 1016.0
15 10:53 Vrbl 6 16.09 Mostly Cloudy BKN095 28.9 23.3 72% 33 76.2 1015.8
15 09:53 W 9 16.09 Partly Cloudy SCT100 27.8 23.3 77% 31 76.17 1015.4
15 08:53 W 9 16.09 Fair CLR 26.1 23.9 88% 28 76.15 1015.2
15 07:53 W 7 16.09 Fair CLR 25 23.9 25.6 23.9 94% 26 76.12 1014.7
15 06:53 Calm 16.09 Fair CLR 24.4 23.9 97% 24 76.07 1014.0
15 05:53 W 7 16.09 Fair CLR 23.9 23.3 96% 23 76.05 1013.6
15 04:53 W 6 16.09 Partly Cloudy SCT023 24.4 23.3 94% 24 76.02 1013.3
15 03:53 Calm 16.09 Fair CLR 24.4 23.3 94% 24 76 1012.9
15 02:53 SW 6 16.09 Fair CLR 25 23.9 94% 26 75.97 1012.6
15 01:53 Calm 16.09 Fair CLR 25 23.3 25.6 24.4 90% 26 75.97 1012.7
15 00:53 S 9 16.09 A Few Clouds FEW030 FEW036 25 23.3 90% 26 76.02 1013.3
14 23:53 W 6 16.09 Partly Cloudy SCT026 25 23.3 90% 26 76.05 1013.7
14 22:53 Calm 16.09 Partly Cloudy FEW027 SCT060 25 23.3 90% 26 76.02 1013.4
14 21:53 Calm 16.09 Fair CLR 25.6 22.8 85% 27 75.95 1012.4
14 20:53 Calm 12.87 Fair CLR 25 22.8 88% 26 75.95 1012.4
14 19:53 W 9 16.09 Thunderstorm in Vicinity CLR 25 21.7 30.6 25 82% 26 75.9 1011.8
14 18:53 SW 20 G 31 16.09 Thunderstorm in Vicinity FEW024 26.1 21.1 74% 28 75.9 1011.7
14 17:53 SE 17 16.09 Thunderstorm in Vicinity FEW060 27.8 23.9 79% 32 75.87 1011.4
14 16:53 SE 15 16.09 Thunderstorm in Vicinity SCT020 28.9 23.9 74% 33 75.84 1011.2
14 15:53 SE 24 16.09 Thunderstorm in Vicinity SCT020 29.4 23.9 72% 34 75.87 1011.4
14 14:53 E 13 16.09 Partly Cloudy SCT024 30 23.9 70% 35 75.9 1011.8
14 13:53 E 11 16.09 Partly Cloudy SCT018 29.4 23.9 29.4 24.4 72% 34 75.95 1012.2
14 12:53 E 17 16.09 Mostly Cloudy SCT016 SCT028 BKN033 28.9 24.4 77% 34 75.95 1012.4
14 11:53 NE 13 16.09 Mostly Cloudy FEW025 BKN044 27.2 23.9 82% 30 75.95 1012.5
14 10:53 Vrbl 7 16.09 Mostly Cloudy BKN015 28.9 23.9 74% 33 75.95 1012.5
14 09:53 W 9 16.09 Mostly Cloudy BKN021 27.2 22.8 77% 30 75.97 1012.7
14 08:53 SW 15 16.09 A Few Clouds FEW003 26.7 23.9 85% 29 75.95 1012.4
14 07:53 W 11 16.09 Mostly Cloudy BKN003 24.4 23.3 24.4 22.2 94% 24 75.95 1012.4
14 06:53 NW 11 14.48 Fair CLR 23.3 22.8 97% 75.92 1012.2
14 05:53 NW 7 14.48 Fair CLR 22.8 21.7 94% 75.9 1011.7
14 04:53 Calm 16.09 Fair CLR 23.9 22.8 94% 23 75.84 1011.1
14 02:53 S 9 16.09 A Few Clouds FEW029 23.9 22.8 94% 23 75.82 1010.8
14 01:53 Calm 16.09 Overcast SCT027 BKN032 OVC070 23.9 22.8 26.7 23.3 94% 23 75.9 1011.5 0.08 0.08
14 00:53 S 6 12.87 Light Rain SCT034 BKN044 OVC060 24.4 23.3 94% 24 75.95 1012.4
13 23:53 NW 7 16.09 Partly Cloudy SCT070 23.3 22.2 94% 76 1013.1
13 22:53 SE 7 16.09 Fair CLR 23.9 22.8 94% 23 75.95 1012.2
13 21:53 S 15 16.09 A Few Clouds FEW024 25 22.8 88% 26 75.92 1012.2
13 20:53 S 11 16.09 A Few Clouds FEW110 25 22.2 85% 26 75.95 1012.2
13 19:53 SW 9 16.09 A Few Clouds FEW020 26.7 21.7 27.2 23.3 74% 29 75.84 1011.1 0.08
13 18:53 S 13 16.09 A Few Clouds FEW012 26.7 22.2 76% 29 75.87 1011.4
13 17:53 S 13 16.09 A Few Clouds FEW012 26.7 22.8 79% 29 75.92 1012.1
13 16:53 S 11 16.09 Fair CLR 25.6 23.3 87% 27 75.9 1011.7 0.08
13 15:53 S 6 16.09 A Few Clouds FEW120 25.6 23.9 90% 27 75.84 1011.1
13 14:53 S 15 16.09 Mostly Cloudy FEW075 SCT100 BKN110 24.4 23.3 94% 24 75.95 1012.4 0.08
13 13:53 SW 19 12.87 Light Rain FEW075 BKN100 23.9 22.2 28.9 23.9 90% 23 76.02 1013.4 0.1 0.41
13 12:53 SW 24 G 33 3.22 Thunderstorm in Vicinity Light Rain Fog/Mist BKN090 OVC120 23.9 22.8 94% 23 76 1013.2 0.3
13 11:53 SW 11 12.87 Light Rain SCT041 BKN050 27.2 23.9 82% 30 75.95 1012.5
13 10:53 SW 13 16.09 Mostly Cloudy FEW020 SCT055 BKN120 27.8 23.9 79% 32 75.97 1012.6
13 09:53 SW 19 16.09 Overcast BKN080 OVC110 27.2 23.3 79% 30 75.97 1012.7
13 08:53 S 19 16.09 Overcast OVC100 26.1 23.3 85% 28 75.95 1012.5
13 07:53 S 15 16.09 Overcast BKN041 OVC100 25 23.3 25 24.4 90% 26 75.92 1012.1
Date Time (edt) Wind (kph) Vis. (km) Weather Sky Cond. Air Dwpt Max. Min. Relative Humidity Wind Chill (°C) Heat Index (°C) altimeter (cm) sea level (mb) 1 hr 3 hr 6 hr
6 hour
Temperature (ºC) Pressure Precipitation (cm)